When you browse on this site, cookies collect data to enhance your experience and personalize the content and advertising you see.
Visit our Privacy Policy to learn more. By continuing to use the site, you agree to this use of cookies and data.
  • In Österreich
  • Länderverzeichnis
  • Für 7 Tage
  • Wassertemperatur
  • Satellitenkarten
  • Wetterkarte
  • News
  • Widgets
  • user-avatar
    Anmelden

    Stündliche Wetter Skvorcovo

    Heute, 20 Februar, Mittwoch

    Zeit Temperatur Niederschläge Wind Luftdruck Luftfeuchtigkeit
    00:00 0°C° 0.1 mm 4 m/S 733 mmHg 92%
    01:00 0°C° 0.1 mm 4 m/S 733 mmHg 92%
    02:00 0°C° 0.1 mm 4 m/S 732 mmHg 93%
    03:00 0°C° 0.2 mm 4 m/S 732 mmHg 93%
    04:00 0°C° 0.2 mm 4 m/S 732 mmHg 93%
    05:00 0°C° 0.2 mm 4 m/S 732 mmHg 93%
    06:00 0°C° 0.1 mm 4 m/S 732 mmHg 93%
    07:00 0°C° 0.1 mm 4 m/S 732 mmHg 92%
    08:00 0°C° 0.1 mm 4 m/S 731 mmHg 92%
    09:00 0°C° 0.1 mm 4 m/S 731 mmHg 91%
    10:00 0°C° 0.1 mm 4 m/S 731 mmHg 90%
    11:00 0°C° 0.1 mm 4 m/S 731 mmHg 89%
    12:00 0°C° 0.1 mm 5 m/S 731 mmHg 88%
    13:00 0°C° 0.1 mm 5 m/S 730 mmHg 87%
    14:00 0°C° 0.1 mm 5 m/S 730 mmHg 87%
    15:00 0°C° 0.4 mm 5 m/S 730 mmHg 87%
    16:00 0°C° 0.4 mm 5 m/S 730 mmHg 87%
    17:00 0°C° 0.4 mm 4 m/S 729 mmHg 88%
    18:00 -1°C° 0.3 mm 5 m/S 730 mmHg 84%
    19:00 -2°C° 0.3 mm 5 m/S 730 mmHg 80%
    20:00 -4°C° 0.3 mm 5 m/S 730 mmHg 76%
    21:00 -5°C° 0.2 mm 5 m/S 730 mmHg 79%
    22:00 -5°C° 0.2 mm 6 m/S 731 mmHg 82%
    23:00 -5°C° 0.2 mm 6 m/S 731 mmHg 85%

    Morgen, 21 Februar, Donnerstag

    Zeit Temperatur Niederschläge Wind Luftdruck Luftfeuchtigkeit
    00:00 -6°C° 0.2 mm 6 m/S 732 mmHg 83%
    01:00 -6°C° 0.2 mm 6 m/S 732 mmHg 81%
    02:00 -8°C° 0.2 mm 6 m/S 733 mmHg 79%
    03:00 -8°C° 0.1 mm 6 m/S 733 mmHg 77%
    04:00 -8°C° 0.1 mm 6 m/S 733 mmHg 75%
    05:00 -8°C° 0.1 mm 7 m/S 734 mmHg 73%
    06:00 -9°C° 0.1 mm 7 m/S 735 mmHg 74%
    07:00 -9°C° 0.1 mm 7 m/S 735 mmHg 75%
    08:00 -9°C° 0.1 mm 7 m/S 736 mmHg 75%
    09:00 -9°C° 0.1 mm 7 m/S 737 mmHg 74%
    10:00 -9°C° 0.1 mm 7 m/S 738 mmHg 72%
    11:00 -9°C° 0.1 mm 7 m/S 738 mmHg 71%
    12:00 -9°C° 0.1 mm 6 m/S 739 mmHg 70%
    13:00 -9°C° 0.1 mm 6 m/S 740 mmHg 70%
    14:00 -9°C° 0.1 mm 6 m/S 740 mmHg 69%
    15:00 -9°C° 0 mm 6 m/S 741 mmHg 70%
    16:00 -10°C° 0 mm 6 m/S 742 mmHg 70%
    17:00 -11°C° 0 mm 5 m/S 742 mmHg 70%
    18:00 -11°C° 0 mm 5 m/S 743 mmHg 71%
    19:00 -12°C° 0 mm 5 m/S 744 mmHg 72%
    20:00 -12°C° 0 mm 5 m/S 744 mmHg 72%
    21:00 -12°C° 0 mm 5 m/S 745 mmHg 72%
    22:00 -12°C° 0 mm 4 m/S 745 mmHg 72%
    23:00 -12°C° 0 mm 4 m/S 746 mmHg 73%

    übermorgen, 22 Februar, Freitag

    Zeit Temperatur Niederschläge Wind Luftdruck Luftfeuchtigkeit
    00:00 -12°C° 0 mm 4 m/S 747 mmHg 73%
    01:00 -14°C° 0 mm 4 m/S 747 mmHg 73%
    02:00 -14°C° 0 mm 4 m/S 748 mmHg 74%
    03:00 -14°C° 0 mm 4 m/S 748 mmHg 74%
    04:00 -14°C° 0 mm 4 m/S 749 mmHg 74%
    05:00 -14°C° 0 mm 5 m/S 749 mmHg 75%
    06:00 -14°C° 0 mm 5 m/S 750 mmHg 74%
    07:00 -14°C° 0 mm 5 m/S 750 mmHg 73%
    08:00 -14°C° 0 mm 5 m/S 751 mmHg 73%
    09:00 -14°C° 0 mm 6 m/S 751 mmHg 70%
    10:00 -12°C° 0 mm 6 m/S 751 mmHg 67%
    11:00 -11°C° 0 mm 6 m/S 752 mmHg 64%
    12:00 -11°C° 0 mm 6 m/S 752 mmHg 63%
    13:00 -11°C° 0 mm 6 m/S 752 mmHg 62%
    14:00 -11°C° 0 mm 7 m/S 752 mmHg 61%
    15:00 -11°C° 0 mm 6 m/S 752 mmHg 64%
    16:00 -11°C° 0 mm 6 m/S 753 mmHg 67%
    17:00 -11°C° 0 mm 6 m/S 753 mmHg 70%
    18:00 -12°C° 0 mm 5 m/S 753 mmHg 72%
    19:00 -12°C° 0 mm 5 m/S 754 mmHg 73%
    20:00 -12°C° 0 mm 5 m/S 755 mmHg 75%
    21:00 -12°C° 0 mm 5 m/S 755 mmHg 75%
    22:00 -12°C° 0 mm 4 m/S 755 mmHg 76%
    23:00 -12°C° 0 mm 4 m/S 755 mmHg 76%

    23 Februar, Samstag

    Zeit Temperatur Niederschläge Wind Luftdruck Luftfeuchtigkeit
    00:00 -14°C° 0 mm 4 m/S 756 mmHg 78%
    01:00 -13°C° 0 mm 3 m/S 756 mmHg 80%
    02:00 -14°C° 0 mm 3 m/S 756 mmHg 82%
    03:00 -14°C° 0 mm 3 m/S 756 mmHg 84%
    04:00 -14°C° 0 mm 3 m/S 756 mmHg 86%
    05:00 -14°C° 0 mm 3 m/S 756 mmHg 87%
    06:00 -15°C° 0 mm 3 m/S 757 mmHg 88%
    07:00 -15°C° 0 mm 3 m/S 757 mmHg 89%
    08:00 -15°C° 0 mm 3 m/S 757 mmHg 89%
    09:00 -13°C° 0 mm 2 m/S 757 mmHg 84%
    10:00 -12°C° 0 mm 2 m/S 757 mmHg 78%
    11:00 -9°C° 0 mm 2 m/S 757 mmHg 72%
    12:00 -9°C° 0 mm 2 m/S 756 mmHg 70%
    13:00 -8°C° 0 mm 2 m/S 756 mmHg 67%
    14:00 -8°C° 0 mm 2 m/S 756 mmHg 64%
    15:00 -8°C° 0 mm 2 m/S 755 mmHg 67%
    16:00 -7°C° 0 mm 1 m/S 755 mmHg 69%
    17:00 -7°C° 0 mm 1 m/S 755 mmHg 71%
    18:00 -7°C° 0 mm 1 m/S 755 mmHg 73%
    19:00 -7°C° 0 mm 1 m/S 754 mmHg 75%
    20:00 -7°C° 0 mm 1 m/S 754 mmHg 77%
    21:00 -7°C° 0.1 mm 1 m/S 754 mmHg 80%
    22:00 -7°C° 0.1 mm 1 m/S 754 mmHg 83%
    23:00 -7°C° 0.1 mm 1 m/S 754 mmHg 87%

    24 Februar, Sonntag

    Zeit Temperatur Niederschläge Wind Luftdruck Luftfeuchtigkeit
    00:00 -7°C° 0 mm 1 m/S 754 mmHg 88%
    01:00 -7°C° 0 mm 1 m/S 754 mmHg 90%
    02:00 -7°C° 0 mm 1 m/S 754 mmHg 91%
    03:00 -7°C° 0 mm 1 m/S 754 mmHg 92%
    04:00 -7°C° 0 mm 1 m/S 754 mmHg 92%
    05:00 -6°C° 0 mm 1 m/S 754 mmHg 93%
    06:00 -6°C° 0 mm 1 m/S 755 mmHg 93%
    07:00 -6°C° 0 mm 0 m/S 755 mmHg 93%
    08:00 -6°C° 0 mm 0 m/S 756 mmHg 94%
    09:00 -5°C° 0 mm 0 m/S 756 mmHg 90%
    10:00 -4°C° 0 mm 0 m/S 756 mmHg 87%
    11:00 -3°C° 0 mm 0 m/S 757 mmHg 83%
    12:00 -2°C° 0 mm 1 m/S 757 mmHg 82%
    13:00 -2°C° 0 mm 1 m/S 757 mmHg 81%
    14:00 -1°C° 0 mm 1 m/S 757 mmHg 80%
    15:00 -1°C° 0 mm 1 m/S 756 mmHg 83%
    16:00 -2°C° 0 mm 1 m/S 756 mmHg 86%
    17:00 -2°C° 0 mm 1 m/S 756 mmHg 89%
    18:00 -2°C° 0 mm 1 m/S 756 mmHg 90%
    19:00 -3°C° 0 mm 1 m/S 756 mmHg 92%
    20:00 -3°C° 0 mm 1 m/S 756 mmHg 93%
    21:00 -3°C° 0 mm 1 m/S 756 mmHg 94%
    22:00 -3°C° 0 mm 1 m/S 756 mmHg 94%
    23:00 -4°C° 0 mm 1 m/S 756 mmHg 95%

    25 Februar, Montag

    Zeit Temperatur Niederschläge Wind Luftdruck Luftfeuchtigkeit
    00:00 -4°C° 0 mm 1 m/S 755 mmHg 96%
    01:00 -4°C° 0 mm 1 m/S 755 mmHg 96%
    02:00 -7°C° 0 mm 2 m/S 755 mmHg 97%
    03:00 -6°C° 0 mm 2 m/S 754 mmHg 97%
    04:00 -6°C° 0 mm 2 m/S 754 mmHg 97%
    05:00 -5°C° 0 mm 2 m/S 753 mmHg 97%
    06:00 -5°C° 0.1 mm 2 m/S 753 mmHg 97%
    07:00 -4°C° 0.1 mm 2 m/S 752 mmHg 97%
    08:00 -4°C° 0.1 mm 2 m/S 752 mmHg 97%
    09:00 -3°C° 0.1 mm 2 m/S 752 mmHg 96%
    10:00 -2°C° 0.1 mm 2 m/S 752 mmHg 95%
    11:00 -1°C° 0.1 mm 2 m/S 752 mmHg 94%
    12:00 -1°C° 0 mm 3 m/S 751 mmHg 91%
    13:00 0°C° 0 mm 3 m/S 751 mmHg 88%
    14:00 0°C° 0 mm 3 m/S 751 mmHg 85%
    15:00 -1°C° 0 mm 3 m/S 751 mmHg 86%
    16:00 -1°C° 0 mm 2 m/S 751 mmHg 87%
    17:00 -2°C° 0 mm 2 m/S 751 mmHg 89%
    18:00 -2°C° 0 mm 2 m/S 750 mmHg 89%
    19:00 -3°C° 0 mm 2 m/S 750 mmHg 90%
    20:00 -4°C° 0 mm 3 m/S 750 mmHg 90%
    21:00 -3°C° 0 mm 2 m/S 750 mmHg 92%
    22:00 -3°C° 0 mm 2 m/S 750 mmHg 93%
    23:00 -3°C° 0 mm 2 m/S 750 mmHg 94%
    Mehr zeigen